Погода в Илорине

Нигерия     8°29′37″N   4°32′02″E
темп.,
°C
ветер,
м/с
пор.,
м/с
влажн.,
%
обл.,
%
осадки,
мм/ч
давл.,
гПа
погр.,
м
17 июня, чт
чт1701:00+23ююз41093100 1.7 1014460
04:00+22юз389475 0.8 1014343
07:00+22юз389429 0.8 1014384
10:00+27юз456628 0.0 1016795
13:00+32юз32475 0.0 10131622
16:00+32юз214599 0.0 10111774
19:00+28юз37615 0.0 1012339
22:00+25ю49750 0.0 1014312
18 июня, пт
пт1801:00+24ююз498476 0.0 1014380
04:00+23ююз398984 0.0 1013379
07:00+23юз3891100 0.0 1015370
10:00+28ююз34669 0.0 1016782
13:00+33ююз234623 0.0 10131839
16:00+34ю234098 0.0 10102025
19:00+29ююз586178 0.0 1011511
22:00+25ююз49825 0.5 1014430
19 июня, сб
сб1901:00+24ююз3889100 0.5 1014414
04:00+23юз4790100 0.3 1013442
07:00+23ююз4891100 0.6 1014495
10:00+27юз4572100 0.0 1015857
13:00+28юз346681 0.1 1014947
16:00+31юз325385 0.0 10111611
19:00+28ююз246898 0.3 1012194
22:00+25ююз4887100 0.6 1014339
20 июня, вс
вс2001:00+23ююз4892100 2.2 1014396
04:00+23юз3895100 1.4 1013376
07:00+23ююз4993100 1.4 1014466
10:00+26ююз347796 0.0 1016738
13:00+28ююз3366100 0.4 10151064
16:00+29ю336794 1.8 1011969
19:00+25ююз368490 4.9 1012159
22:00+23ююз3890100 4.9 1014270
21 июня, пн
пн2101:00+22юз41094100 4.9 1015467
04:00+22юз399486 0.0 1014436
07:00+22ююз289451 0.0 1014386
10:00+26юз5671100 0.0 1015918
13:00+30юз4456100 0.1 10131614
16:00+26юз357787 2.6 1012360
19:00+24юз3788100 6.7 1013247
22:00+23ююз4109353 2.3 1014476